Regional Weather Roundup
Issued by NWS

Home | Current Version | Previous Version | Graphics & Text | Print | Product List | Glossary On
Versions: 1 2 3 4 5 6 7 8 9 10 11 12 13 14 15 16 17 18 19 20 21 22 23 24 25 26 27 28
000
ASUS45 KBOI 291710
RWRID

IDAHO REGIONAL WEATHER ROUNDUP
NATIONAL WEATHER SERVICE BOISE ID
1100 AM MDT FRI APR 29 2016

NOTE: "FAIR" INDICATES FEW OR NO CLOUDS BELOW 12000 FEET
WITH NO SIGNIFICANT WEATHER AND/OR OBSTRUCTIONS TO VISIBILITY

IDZ012-014-291800-
SOUTHWEST IDAHO


CITY           SKY/WX    TMP DP  RH WIND       PRES   REMARKS
BOISE          MOSUNNY   57  39  51 NW10      29.90F
CALDWELL       PTSUNNY   58  41  53 W10       29.92S
MOUNTAIN HOME  SUNNY     58  38  48 NW12      29.89F
$$

IDZ016-017-291800-
SOUTHCENTRAL IDAHO


CITY           SKY/WX    TMP DP  RH WIND       PRES   REMARKS
BURLEY         CLOUDY    46  40  79 W8        29.89S
JEROME         MOSUNNY   50  41  71 SW13      29.90F
TWIN FALLS     PTSUNNY   51  38  60 W16       29.90S
$$

IDZ019>023-291800-
SOUTHEAST IDAHO


CITY           SKY/WX    TMP DP  RH WIND       PRES   REMARKS
IDAHO FALLS    PTSUNNY   49  33  54 SW14      29.90S
POCATELLO      CLOUDY    48  38  68 SW10      29.90S
REXBURG        CLOUDY    46  32  58 NW7       29.89F
$$

IDZ006-010-011-018-031-032-291800-
CENTRAL IDAHO MOUNTAINS


CITY           SKY/WX    TMP DP  RH WIND       PRES   REMARKS
MCCALL         LGT RAIN  39  36  89 S3        29.89S
HAILEY         PTSUNNY   45  39  81 SE5       29.89F
STANLEY          N/A     40  32  73 NE5       29.89F
SALMON         CLOUDY    41  34  75 CALM      29.91S
CHALLIS        CLOUDY    45  35  68 NE7       29.87F
$$

IDZ002-004-006-007-026-291800-
NORTHERN IDAHO


CITY           SKY/WX    TMP DP  RH WIND       PRES   REMARKS
LEWISTON       LGT RAIN  49  46  90 SW5       29.96S
LOWELL           N/A     50  44  80 CALM      29.95F
COEUR D`ALENE  CLOUDY    48  36  61 N5        29.93S
MULLAN PASS    CLOUDY    34  25  69 CALM      29.89F
$$




USA.gov is the U.S. government's official web portal to all federal, state and local government web resources and services.